Flag for U.S.A. Weather past 2 weeks in Chattanooga, Tennessee, U.S.A.

Now
71 °F

Light rain. Partly cloudy.


Feels Like: 68 °F
Forecast: 67 / 73 °F
Wind: 3 mph from Southwest

Location: Lovell Field

Current Time: Aug 30, 2015 at 6:25:46 AM

Latest Report: Aug 30, 2015 at 5:53 AM


Visibility: 7 mi

Pressure: 30.10 "Hg

Humidity: 90%

Dew point: 68 °F

Location of ChattanoogaLocation

Historic Weather in Chattanooga — Graph

°F

Chattanooga temperature yesterday

Maximum temperature yesterday: 84 °F (at 12:53 PM)
Minimum temperature yesterday: 69 °F (at 4:53 AM)
Average temperature yesterday: 77 °F

Past Weeks' High & Low Weather Summary

 TemperatureHumidityPressure
High89 °F (Aug 16, 2:53 PM)97% (Aug 17, 12:53 PM)30.19 "Hg (Aug 17, 12:53 PM)
Low60 °F (Aug 26, 4:53 AM)35% (Aug 25, 4:53 PM)29.87 "Hg (Aug 19, 4:53 PM)
Average76 °F74%30.04 "Hg
* Reported Aug 15 4:53 AM — Aug 30 4:53 AM, Chattanooga, Weather by CustomWeather, © 2015

Note: Actual official high and low records may vary slightly from our data, if they occured in-between our weather recording intervals... More about our weather records

Advertising

Chattanooga weather history for previous 24 hours

 ConditionsComfort  
Time TempWeatherWind HumidityBarometerVisibility
4:53 AM
Sun, Aug 30
71 °FPassing clouds.No wind90%30.09 "Hg10 mi
3:53 AM72 °FPassing clouds.No wind87%30.09 "Hg10 mi
2:53 AM72 °FPassing clouds.No wind91%30.09 "Hg10 mi
1:53 AM73 °FPassing clouds.No wind84%30.10 "Hg10 mi
12:53 AM73 °FClear.No wind84%30.11 "Hg10 mi
11:53 PM
Sat, Aug 29
73 °FPartly cloudy.No wind84%30.11 "Hg10 mi
10:53 PM74 °FPassing clouds.3 mph82%30.11 "Hg10 mi
9:53 PM76 °FPartly cloudy.5 mph77%30.12 "Hg10 mi
8:53 PM79 °FBroken clouds.7 mph60%30.11 "Hg10 mi
7:53 PM80 °FBroken clouds.6 mph54%30.09 "Hg10 mi
6:53 PM82 °FBroken clouds.6 mph51%30.09 "Hg10 mi
5:53 PM83 °FBroken clouds.6 mph53%30.08 "Hg10 mi
4:53 PM84 °FBroken clouds.8 mph55%30.08 "Hg10 mi
3:53 PM83 °FBroken clouds.9 mph59%30.09 "Hg10 mi
2:53 PM84 °FThundershowers. Passing clouds.8 mph57%30.10 "Hg10 mi
1:53 PM84 °FBroken clouds.8 mph59%30.13 "Hg10 mi
12:53 PM84 °FBroken clouds.10 mph59%30.16 "Hg10 mi
11:53 AM81 °FBroken clouds.14 mph67%30.17 "Hg10 mi
10:53 AM79 °FBroken clouds.8 mph72%30.17 "Hg10 mi
9:53 AM76 °FBroken clouds.7 mph77%30.17 "Hg10 mi
8:53 AM73 °FBroken clouds.No wind81%30.17 "Hg10 mi
7:53 AM70 °FPartly cloudy.No wind87%30.16 "Hg7 mi
6:53 AM69 °FPartly cloudy.No wind90%30.14 "Hg7 mi
Weather by CustomWeather, © 2015

See weather overviewHow to use our weather pages